[[{"header":{"parameterUnit":"m.s-1","parameterCategory":1,"la1":30.2992,"la2":30.254,"lo1":-89.0895,"lo2":-89.0443,"dy":0.0025,"dx":0.0025,"nx":19,"ny":19,"refTime":"2026-04-08T21:00:00:Z","depth":0,"parameterNumber":2,"parameterNumberName":"U-component_of_WINDS"},"data":[0,0,0,-2.5334,-2.5333,-2.5293,-2.5292,-2.5285,-2.5286,0,0,0,0,0,0,0,0,0,0,0,-2.5372,-2.5373,-2.5334,-2.5333,-2.5293,-2.5292,-2.5285,-2.5286,0,0,0,0,0,0,0,0,0,0,0,-2.5372,-2.5373,-2.5374,-2.5333,-2.5293,-2.5292,-2.5285,-2.53,0,0,0,0,0,0,0,0,0,0,-2.5332,-2.5393,-2.5372,-2.5374,-2.5333,-2.5293,-2.5292,-2.53,-2.5299,-2.5323,0,-2.535,0,-2.5318,-2.5288,-2.5288,0,0,0,-2.5314,-2.5394,-2.5359,-2.5374,-2.5333,-2.5293,-2.5306,-2.5299,-2.5298,-2.5322,-2.5349,-2.5348,-2.5318,-2.5288,-2.5288,-2.5486,-2.5488,0,0,-2.5316,-2.5379,-2.536,-2.536,-2.5367,-2.5307,-2.5305,-2.5298,-2.5332,-2.5349,-2.5347,-2.5317,-2.5288,-2.5289,-2.5484,-2.5487,0,0,0,-2.5336,-2.5382,-2.5346,-2.5361,-2.535,-2.5306,-2.5303,-2.5332,-2.5315,-2.5346,-2.5317,-2.5289,-2.5289,-2.5482,-2.5485,-2.5637,0,0,0,-2.5336,-2.5393,-2.5348,-2.5386,-2.5351,-2.5341,-2.5339,-2.5316,-2.5313,-2.5317,-2.5289,-2.5289,-2.548,-2.5484,-2.5629,-2.57,0,0,0,-2.5366,-2.5396,-2.5399,-2.5389,-2.5374,-2.5339,-2.5321,-2.5314,-2.5297,-2.5288,-2.5289,-2.5479,-2.5483,-2.5621,-2.5687,-2.5771,0,0,0,-2.5416,-2.5535,-2.5402,-2.5524,-2.5375,-2.5433,-2.532,-2.5361,-2.5371,-2.5289,-2.548,-2.5485,-2.5618,-2.5679,-2.5764,-2.5855,-2.5899,0,0,-2.5601,-2.5559,-2.5626,-2.5506,-2.5604,-2.5434,-2.5554,-2.5505,-2.5447,-2.5477,-2.548,-2.5632,-2.5686,-2.577,-2.6117,-2.6153,0,0,0,-2.5706,-2.5755,-2.5767,-2.578,-2.5744,-2.572,-2.5645,-2.5627,-2.5649,-2.5475,-2.5682,-2.5712,-2.5759,-2.58,-2.583,-2.5867,-2.5506,-2.5505,-2.5505,-2.6061,-2.5979,-2.6084,-2.5998,-2.6012,-2.5933,-2.5937,-2.5899,-2.5813,-2.5864,-2.5873,-2.6094,-2.6144,-2.6166,-2.6205,-2.5913,-2.5913,-2.5914,-2.5914,-2.6327,-2.6384,-2.6266,-2.6326,-2.6239,-2.6289,-2.6218,-2.6155,-2.619,-2.608,-2.6117,-2.6006,-2.6207,-2.6237,-2.5925,-2.5923,-2.5922,-2.5921,-2.592,-2.6552,-2.6565,-2.654,-2.655,-2.6567,-2.6474,-2.6513,-2.6432,-2.6357,-2.6393,-2.6395,-2.6392,-2.6381,-2.6399,-2.64,-2.6401,-2.6401,-2.6402,-2.6402,-2.6797,-2.6763,-2.6805,-2.6777,-2.6774,-2.6761,-2.6683,-2.6678,-2.6653,-2.6591,-2.6591,-2.6502,-2.6241,-2.6178,-2.6414,-2.6412,-2.641,-2.6409,-2.6408,-2.7101,-2.7019,-2.7085,-2.7082,-2.7043,-2.7066,-2.6961,-2.6959,-2.6944,-2.6966,-2.6867,-2.6687,-2.6639,-2.6614,-2.6563,-2.6883,-2.6883,-2.6883,-2.6883,-2.7293,-2.7259,-2.7308,-2.731,-2.7303,-2.7214,-2.7293,-2.7233,-2.7159,-2.7144,-2.7085,-2.7008,-2.6987,-2.6952,-2.692,-2.687,-2.7262,-2.7263,-2.7263,-2.7476,-2.7439,-2.7521,-2.7446,-2.7408,-2.7379,-2.745,-2.7458,-2.7356,-2.7277,-2.7132,-2.7116,-2.699,-2.6953,-2.6874,-2.6827,-2.6734,0,0]},{"header":{"parameterUnit":"m.s-1","parameterCategory":1,"la1":30.2992,"la2":30.254,"lo1":-89.0895,"lo2":-89.0443,"dy":0.0025,"dx":0.0025,"nx":19,"ny":19,"refTime":"2026-04-08T21:00:00:Z","depth":0,"parameterNumber":3,"parameterNumberName":"V-component_of_WINDS"},"data":[0,0,0,1.2942,1.2941,1.2896,1.2896,1.2831,1.283,0,0,0,0,0,0,0,0,0,0,0,1.2953,1.2953,1.2942,1.2941,1.2896,1.2896,1.2831,1.283,0,0,0,0,0,0,0,0,0,0,0,1.2953,1.2953,1.2952,1.2941,1.2896,1.2896,1.2831,1.2867,0,0,0,0,0,0,0,0,0,0,1.2911,1.292,1.2953,1.2952,1.294,1.2896,1.2896,1.2869,1.2865,1.2849,0,1.2837,0,1.2833,1.2826,1.2826,0,0,0,1.2941,1.2924,1.2914,1.2952,1.294,1.2896,1.2916,1.2867,1.2862,1.2843,1.2836,1.2834,1.2832,1.2825,1.2825,1.274,1.274,0,0,1.2944,1.2943,1.2917,1.2911,1.2921,1.2918,1.2915,1.2864,1.2854,1.2836,1.2832,1.2831,1.2825,1.2824,1.274,1.274,0,0,0,1.295,1.2945,1.2936,1.2914,1.2907,1.2917,1.2913,1.2857,1.2854,1.2832,1.283,1.2825,1.2824,1.2741,1.274,1.272,0,0,0,1.2952,1.2949,1.2937,1.2936,1.2908,1.2882,1.2907,1.2858,1.2852,1.283,1.2825,1.2823,1.2741,1.274,1.2721,1.2709,0,0,0,1.2956,1.2949,1.2943,1.2936,1.2918,1.2882,1.2877,1.2857,1.2851,1.2826,1.2823,1.2742,1.2741,1.2723,1.2711,1.2686,0,0,0,1.296,1.2923,1.2942,1.29,1.2918,1.2872,1.2878,1.2842,1.2818,1.2824,1.2741,1.274,1.2723,1.2712,1.2687,1.2664,1.2654,0,0,1.2912,1.2917,1.2892,1.2908,1.2859,1.2879,1.2825,1.2801,1.2798,1.2759,1.2757,1.2721,1.2711,1.2686,1.2606,1.2598,0,0,0,1.2876,1.2858,1.2846,1.2825,1.2809,1.2794,1.278,1.2772,1.2739,1.2779,1.2706,1.27,1.2685,1.2674,1.2667,1.2654,1.2736,1.2736,1.2736,1.2804,1.2806,1.2765,1.2762,1.2741,1.2729,1.2712,1.2698,1.2702,1.2686,1.2673,1.2624,1.2611,1.2606,1.2593,1.2662,1.2662,1.2662,1.2662,1.2733,1.2707,1.2719,1.2683,1.2684,1.2653,1.264,1.2645,1.2614,1.2633,1.262,1.2639,1.2598,1.2586,1.266,1.2661,1.2661,1.2661,1.2661,1.2684,1.2672,1.2666,1.2638,1.2615,1.2613,1.2584,1.2586,1.2586,1.2574,1.256,1.2561,1.256,1.2568,1.2568,1.2568,1.2568,1.2568,1.2568,1.2635,1.2629,1.2606,1.259,1.2577,1.2561,1.2551,1.2538,1.2524,1.2527,1.2527,1.2532,1.2596,1.261,1.2565,1.2565,1.2566,1.2566,1.2566,1.2557,1.2576,1.2541,1.253,1.251,1.2488,1.2493,1.2467,1.2456,1.2442,1.2452,1.25,1.2503,1.2508,1.2519,1.2453,1.2453,1.2453,1.2453,1.2514,1.2519,1.2484,1.2466,1.2447,1.2449,1.2407,1.24,1.2394,1.2387,1.2398,1.2415,1.242,1.242,1.2427,1.2438,1.2352,1.2352,1.2352,1.2466,1.2469,1.2434,1.2433,1.2419,1.2406,1.2367,1.2343,1.234,1.2348,1.2382,1.2386,1.2413,1.2423,1.2427,1.2438,1.2459,0,0]}]]